Regional Weather Roundup
Issued by NWS Upton, NY

Current Version | Previous Version | Text Only | Print | Product List | Glossary On
Versions: 1 2 3 4 5 6 7 8 9 10 11 12 13 14 15 16 17 18 19 20 21 22 23 24 25 26 27 28 29 30 31 32 33 34 35 36 37 38 39 40 41 42 43 44 45 46 47 48 49 50
000
ASUS41 KOKX 052305
RWROKX

REGIONAL WEATHER ROUNDUP
NATIONAL WEATHER SERVICE NEW YORK NY
600 PM EST THU MAR 05 2015

NOTE: "FAIR" INDICATES FEW OR NO CLOUDS BELOW 12,000 FEET WITH NO
SIGNIFICANT WEATHER AND/OR OBSTRUCTIONS TO VISIBILITY.

NYZ071-072-176-178-NJZ106-104-060000-
NEW YORK CITY METRO AREA


CITY           SKY/WX    TMP DP  RH WIND       PRES   REMARKS
CENTRAL PARK   LGT SNOW  20  16  84 VRB6      30.25R FOG     WCI  12
LAGUARDIA APRT LGT SNOW  22  18  85 NW14      30.24R VSB 1   WCI   9
KENNEDY INTL   LGT SNOW  23  17  78 N14       30.25R VSB 1   WCI  11
NEWARK/LIBERTY LGT SNOW  21  16  79 NW12      30.24R WCI   9
BRNX BOT. GARD   N/A    N/A N/A N/A W9        30.24R
TETERBORO      LGT SNOW  21  14  74 N9        30.23R WCI  11
$$

NYZ177-179-078>081-060000-
LONG ISLAND NEW YORK

CITY           SKY/WX    TMP DP  RH WIND       PRES   REMARKS
FARMINGDALE    LGT SNOW  20  16  84 N13       30.21S FOG     WCI   7
ISLIP          LGT SNOW  20  16  84 NW14      30.17R VSB 1   WCI   7
SHIRLEY        LGT SNOW  21  16  81 NW10      30.18S WCI  10
WESTHAMPTON    LGT SNOW  21  16  81 NW10      30.18S VSB 1   WCI  10
MONTAUK POINT    N/A     24  20  84 NW10      30.18R WCI  14
$$

NYZ052-065-067-060000-
HUDSON VALLEY

CITY           SKY/WX    TMP DP  RH WIND       PRES   REMARKS
WHITE PLAINS   CLOUDY    20  13  74 W8        30.20R WCI  10
NEWBURGH       CLOUDY    21   7  53 NE5       30.20R WCI  15
MONTGOMERY     CLOUDY    22   1  40 NW9       30.22R WCI  12
POUGHKEEPSIE   CLOUDY    22   5  48 N7        30.23R WCI  13
ALBANY         CLOUDY    19   2  47 W15       30.23R WCI   5
$$

NJZ001-105-106-008-010-013-015-019>022-104-060000-
NEW JERSEY

CITY           SKY/WX    TMP DP  RH WIND       PRES   REMARKS
NEWARK/LIBERTY LGT SNOW  21  16  79 NW12      30.24R WCI   9
TETERBORO      LGT SNOW  21  14  74 N9        30.23R WCI  11
CALDWELL       CLOUDY    20  12  71 W3        30.24R HAZE
MORRISTOWN     LGT SNOW  19  16  86 NW5       30.25R WCI  13
SOMERVILLE     CLOUDY    20  14  77 NW5       30.24R WCI  13
SUSSEX         CLOUDY    21   1  41 NW6       30.22R WCI  13
ANDOVER          N/A     19   4  51 CALM      30.22R
TRENTON        LGT SNOW  20  15  81 N10       30.24R WCI   9
MILLVILLE      LGT SNOW  22  32 100 NW8       30.22R VSB 1   WCI  12
ATLANTIC CITY  LGT SNOW  21  19  92 NW13      30.22R VSB 3/4 WCI   9
WRIGHTSTOWN    LGT SNOW  19  18  93 NW10      30.20R FOG     WCI   8
TOMS RIVER     CLOUDY    21  19  93 NW16      30.24R WCI   7
BELMAR         CLOUDY    21  12  68 NW18      30.24R WCI   6
$$

PAZ047>061-062-071-060000-
EASTERN PENNSYLVANIA

CITY           SKY/WX    TMP DP  RH WIND       PRES   REMARKS
PHILADELPHIA   LGT SNOW  20  15  81 NW15G23   30.28R WCI   6
ALLENTOWN      CLOUDY    20   6  55 NW12      30.27R WCI   8
SCRANTON       CLOUDY    17   1  49 N10       30.23R WCI   5
$$

CTZ002-004>006-009-010-012-RIZ004-006-007-MAZ004-011-015-060000-
SOUTHERN NEW ENGLAND
 IN CT

CITY           SKY/WX    TMP DP  RH WIND       PRES   REMARKS
BRADLEY INTL   CLOUDY    25   3  38 NW8       30.15S WCI  16
HARTFORD       CLOUDY    24   6  46 VRB6      30.18R WCI  17
DANBURY        CLOUDY    20   4  50 N6        30.21R WCI  12
WTRBRY/OXFORD  CLOUDY    19   1  45 NW7       30.14S WCI  10
BRIDGEPORT     CLOUDY    20  16  84 W3        30.19F
MERIDEN        CLOUDY    23   7  50 NW10      30.17S WCI  12
NEW HAVEN      CLOUDY    21  17  84 VRB5      30.17F WCI  15
CHESTER        LGT SNOW  21  19  93 W6        30.16R WCI  14
GROTON         LGT SNOW  21  19  92 NW10      30.18R FOG     WCI  10
WILLIMANTIC    CLOUDY    24  15  68 S5        30.15R WCI  18

 IN RI

CITY           SKY/WX    TMP DP  RH WIND       PRES   REMARKS
PROVIDENCE     LGT SNOW  22  18  85 W6        30.16R FOG     WCI  14
BLOCK ISLAND   CLOUDY    25  19  80 N8        30.12S WCI  16
WESTERLY       LGT SNOW  23  20  88 NW6       30.15S FOG     WCI  16

 IN MA

CITY           SKY/WX    TMP DP  RH WIND       PRES   REMARKS
BOSTON         CLOUDY    24   3  40 N13       30.16R WCI  12
WORCESTER      CLOUDY    20   2  45 NW8       30.10R WCI  10
WESTFIELD      CLOUDY    23   3  42 N8        30.15R WCI  14
PROVINCETOWN   CLOUDY    23  16  74 N12G18    30.15R WCI  12
NANTUCKET      LGT SNOW  24  20  84 N18       30.12R FOG     WCI  10
$$

ANZ330-335-338-340-345-350-353-355-060000-
COASTAL MARINE OBSERVATIONS


STATION/POSITION TIME  SKY/WX   TEMP    WIND        PRES    VSBY  WAVE
                                AIR SEA DIR/SP/G                  HT/PER
                 (UTC)          (F)     (DEG/KT/KT) (MB)    (MI)  (FT/S)
NY HARB ENTRANCE 2300            24 38  320/ 14/ 17 1022.0          3/ 9
4S FIRE IS       2200               32                N/A           2/ 8
20S FIRE ISLAND  2200               36              1022.5          4/ 5
23SW MTP         2300                                 N/A           3/10
HUDSON CANYON    NOT AVBL
EXECUTION ROCKS  NOT AVBL
WESTERN LI SOUND NOT AVBL
CENTRAL LI SOUND NOT AVBL
EASTERN LI SOUND NOT AVBL
ROBBINS REEF     2300            20     330/ 12/ 16 1023.0
$$


>>>>>>>>>>>>>>>>>>>>>>>>>>>> KEY <<<<<<<<<<<<<<<<<<<<<<<<<<<
>                                                          <
>     SKY/WX - SKY CONDITION/PRESENT WEATHER               <
>     TMP    - TEMPERATURE IN FAHRENHEIT                   <
>     DP     - DEWPOINT IN FAHRENHEIT                      <
>     RH     - RELATIVE HUMIDITY IN PERCENT                <
>     WIND   - DIRECTION AND SPEED IN MPH                  <
>     PRES   - MEAN SEA LEVEL PRESSURE IN INCHES OF HG     <
>     WCI    - WIND CHILL INDEX                            <
>     VSB    - VISIBILITY IN MILES                         <
>     HX     - HEAT INDEX                                  <
>     TC     - TEMPERATURE IN CELSIUS                      <
>     VRB    - VARIABLE WIND DIRECTION                     <
>                                                          <
>>>>>>>>>>>>>>>>>>>>>>>>>>>> KEY <<<<<<<<<<<<<<<<<<<<<<<<<<<




USA.gov is the U.S. government's official web portal to all federal, state and local government web resources and services.